• In Belarus
  • List of Countries
  • For 7 days
  • Water Temperature
  • Satellite Maps
  • Weather Map
  • Weather Widgets
  • user-avatar
    Login

    Hourly Weather Canet-Plage

    Today, 19 February, Monday

    Time Temperature Precipitation Wind Pressure Humidity
    00:00 +7°C° 0 mm 4 mps 764 mmHg 86%
    01:00 +8°C° 0 mm 3 mps 764 mmHg 87%
    02:00 +8°C° 0 mm 3 mps 764 mmHg 88%
    03:00 +8°C° 0 mm 3 mps 763 mmHg 89%
    04:00 +8°C° 0 mm 3 mps 763 mmHg 89%
    05:00 +8°C° 0 mm 2 mps 763 mmHg 90%
    06:00 +8°C° 0 mm 2 mps 763 mmHg 91%
    07:00 +8°C° 0 mm 2 mps 763 mmHg 87%
    08:00 +9°C° 0 mm 2 mps 763 mmHg 84%
    09:00 +10°C° 0 mm 2 mps 763 mmHg 80%
    10:00 +12°C° 0 mm 2 mps 763 mmHg 78%
    11:00 +13°C° 0 mm 2 mps 763 mmHg 75%
    12:00 +13°C° 0 mm 2 mps 763 mmHg 72%
    13:00 +13°C° 0 mm 2 mps 762 mmHg 72%
    14:00 +13°C° 0 mm 2 mps 762 mmHg 72%
    15:00 +14°C° 0 mm 2 mps 761 mmHg 72%
    16:00 +13°C° 0 mm 2 mps 761 mmHg 77%
    17:00 +12°C° 0 mm 2 mps 761 mmHg 81%
    18:00 +10°C° 0 mm 2 mps 761 mmHg 86%
    19:00 +9°C° 0 mm 3 mps 761 mmHg 87%
    20:00 +8°C° 0 mm 4 mps 761 mmHg 87%
    21:00 +8°C° 0 mm 4 mps 761 mmHg 88%
    22:00 +8°C° 0.1 mm 5 mps 761 mmHg 88%
    23:00 +8°C° 0.1 mm 5 mps 761 mmHg 88%

    Tomorrow, 20 February, Tuesday

    Time Temperature Precipitation Wind Pressure Humidity
    00:00 +8°C° 0.1 mm 5 mps 761 mmHg 88%
    01:00 +8°C° 0.2 mm 5 mps 761 mmHg 88%
    02:00 +8°C° 0.2 mm 6 mps 761 mmHg 88%
    03:00 +8°C° 0.2 mm 6 mps 760 mmHg 88%
    04:00 +8°C° 0.1 mm 6 mps 760 mmHg 87%
    05:00 +8°C° 0.1 mm 7 mps 760 mmHg 87%
    06:00 +8°C° 0.1 mm 7 mps 760 mmHg 86%
    07:00 +9°C° 0.1 mm 7 mps 760 mmHg 84%
    08:00 +10°C° 0.1 mm 7 mps 760 mmHg 82%
    09:00 +10°C° 0.1 mm 8 mps 760 mmHg 79%
    10:00 +11°C° 0.2 mm 8 mps 759 mmHg 77%
    11:00 +12°C° 0.2 mm 8 mps 759 mmHg 75%
    12:00 +12°C° 0.2 mm 8 mps 759 mmHg 73%
    13:00 +12°C° 0.2 mm 9 mps 758 mmHg 74%
    14:00 +12°C° 0.2 mm 9 mps 758 mmHg 74%
    15:00 +11°C° 0.2 mm 9 mps 757 mmHg 75%
    16:00 +11°C° 0.1 mm 9 mps 757 mmHg 76%
    17:00 +10°C° 0.1 mm 9 mps 757 mmHg 78%
    18:00 +10°C° 0.1 mm 9 mps 757 mmHg 80%
    19:00 +9°C° 0.1 mm 10 mps 757 mmHg 80%
    20:00 +8°C° 0.1 mm 10 mps 757 mmHg 81%
    21:00 +8°C° 0.1 mm 10 mps 758 mmHg 81%
    22:00 +8°C° 0.2 mm 9 mps 757 mmHg 81%
    23:00 +8°C° 0.2 mm 9 mps 757 mmHg 81%

    Day after tomorrow, 21 February, Wednesday

    Time Temperature Precipitation Wind Pressure Humidity
    00:00 +7°C° 0.2 mm 8 mps 757 mmHg 81%
    01:00 +7°C° 0.3 mm 8 mps 757 mmHg 80%
    02:00 +7°C° 0.3 mm 9 mps 757 mmHg 79%
    03:00 +6°C° 0.3 mm 9 mps 756 mmHg 78%
    04:00 +6°C° 0.5 mm 8 mps 757 mmHg 76%
    05:00 +5°C° 0.5 mm 8 mps 757 mmHg 74%
    06:00 +5°C° 0.5 mm 7 mps 757 mmHg 72%
    07:00 +5°C° 0.1 mm 8 mps 757 mmHg 71%
    08:00 +6°C° 0.1 mm 8 mps 758 mmHg 70%
    09:00 +6°C° 0.1 mm 8 mps 758 mmHg 69%
    10:00 +7°C° 0 mm 8 mps 758 mmHg 63%
    11:00 +8°C° 0 mm 7 mps 758 mmHg 56%
    12:00 +8°C° 0 mm 7 mps 758 mmHg 50%
    13:00 +8°C° 0 mm 7 mps 758 mmHg 50%
    14:00 +8°C° 0 mm 7 mps 758 mmHg 50%
    15:00 +8°C° 0 mm 7 mps 758 mmHg 50%
    16:00 +6°C° 0 mm 8 mps 758 mmHg 54%
    17:00 +5°C° 0 mm 8 mps 758 mmHg 59%
    18:00 +4°C° 0 mm 8 mps 758 mmHg 63%
    19:00 +2°C° 0 mm 8 mps 759 mmHg 62%
    20:00 +2°C° 0 mm 8 mps 759 mmHg 62%
    21:00 +2°C° 0 mm 8 mps 759 mmHg 61%
    22:00 +1°C° 0 mm 8 mps 758 mmHg 62%
    23:00 +1°C° 0 mm 9 mps 758 mmHg 62%

    22 February, Thursday

    Time Temperature Precipitation Wind Pressure Humidity
    00:00 +1°C° 0 mm 9 mps 757 mmHg 63%
    01:00 +1°C° 0 mm 9 mps 757 mmHg 64%
    02:00 +1°C° 0 mm 9 mps 756 mmHg 65%
    03:00 +1°C° 0 mm 9 mps 756 mmHg 66%
    04:00 +1°C° 0 mm 9 mps 756 mmHg 66%
    05:00 0°C° 0 mm 9 mps 755 mmHg 67%
    06:00 0°C° 0 mm 9 mps 755 mmHg 67%
    07:00 +1°C° 0 mm 9 mps 755 mmHg 63%
    08:00 +2°C° 0 mm 9 mps 755 mmHg 59%
    09:00 +3°C° 0 mm 9 mps 755 mmHg 55%
    10:00 +3°C° 0 mm 9 mps 754 mmHg 52%
    11:00 +5°C° 0 mm 9 mps 754 mmHg 50%
    12:00 +6°C° 0 mm 8 mps 754 mmHg 47%
    13:00 +6°C° 0 mm 8 mps 753 mmHg 48%
    14:00 +6°C° 0 mm 8 mps 753 mmHg 50%
    15:00 +5°C° 0 mm 8 mps 753 mmHg 52%
    16:00 +4°C° 0.3 mm 8 mps 753 mmHg 56%
    17:00 +4°C° 0.3 mm 8 mps 754 mmHg 60%
    18:00 +3°C° 0.3 mm 7 mps 754 mmHg 64%
    19:00 +3°C° 0.3 mm 7 mps 754 mmHg 66%
    20:00 +2°C° 0.3 mm 7 mps 755 mmHg 69%
    21:00 +2°C° 0.3 mm 7 mps 755 mmHg 71%
    22:00 +2°C° 0.1 mm 7 mps 755 mmHg 71%
    23:00 +2°C° 0.1 mm 7 mps 755 mmHg 71%

    23 February, Friday

    Time Temperature Precipitation Wind Pressure Humidity
    00:00 +2°C° 0.1 mm 7 mps 755 mmHg 70%
    01:00 0°C° 0 mm 7 mps 754 mmHg 71%
    02:00 0°C° 0 mm 7 mps 754 mmHg 71%
    03:00 0°C° 0 mm 7 mps 754 mmHg 71%
    04:00 +1°C° 0 mm 6 mps 754 mmHg 71%
    05:00 +1°C° 0 mm 6 mps 754 mmHg 70%
    06:00 -1°C° 0 mm 6 mps 754 mmHg 70%
    07:00 +2°C° 0 mm 6 mps 754 mmHg 66%
    08:00 +3°C° 0 mm 6 mps 755 mmHg 61%
    09:00 +5°C° 0 mm 6 mps 755 mmHg 56%
    10:00 +7°C° 0 mm 6 mps 755 mmHg 53%
    11:00 +8°C° 0 mm 6 mps 755 mmHg 51%
    12:00 +10°C° 0 mm 5 mps 755 mmHg 48%
    13:00 +10°C° 0 mm 5 mps 754 mmHg 49%
    14:00 +10°C° 0 mm 5 mps 754 mmHg 50%
    15:00 +10°C° 0 mm 5 mps 754 mmHg 51%
    16:00 +8°C° 0 mm 5 mps 755 mmHg 58%
    17:00 +7°C° 0 mm 6 mps 755 mmHg 65%
    18:00 +4°C° 0 mm 6 mps 755 mmHg 72%
    19:00 +3°C° 0 mm 6 mps 756 mmHg 74%
    20:00 +3°C° 0 mm 5 mps 756 mmHg 76%
    21:00 +2°C° 0 mm 5 mps 757 mmHg 78%
    22:00 +2°C° 0 mm 5 mps 757 mmHg 78%
    23:00 +2°C° 0 mm 5 mps 757 mmHg 78%

    24 February, Saturday

    Time Temperature Precipitation Wind Pressure Humidity
    00:00 +3°C° 0 mm 4 mps 758 mmHg 78%
    01:00 +1°C° 0 mm 4 mps 758 mmHg 78%
    02:00 +1°C° 0 mm 4 mps 758 mmHg 77%
    03:00 +1°C° 0 mm 4 mps 758 mmHg 77%
    04:00 +1°C° 0 mm 4 mps 758 mmHg 76%
    05:00 +1°C° 0 mm 4 mps 758 mmHg 76%
    06:00 +1°C° 0 mm 4 mps 758 mmHg 75%
    07:00 +4°C° 0 mm 3 mps 758 mmHg 69%
    08:00 +5°C° 0 mm 3 mps 759 mmHg 62%
    09:00 +8°C° 0 mm 3 mps 759 mmHg 56%
    10:00 +10°C° 0 mm 3 mps 759 mmHg 52%
    11:00 +12°C° 0 mm 2 mps 758 mmHg 49%
    12:00 +13°C° 0 mm 2 mps 758 mmHg 46%
    13:00 +13°C° 0 mm 2 mps 758 mmHg 47%
    14:00 +13°C° 0 mm 2 mps 758 mmHg 48%
    15:00 +13°C° 0 mm 2 mps 757 mmHg 49%
    16:00 +10°C° 0 mm 2 mps 757 mmHg 58%
    17:00 +8°C° 0 mm 2 mps 758 mmHg 67%
    18:00 +5°C° 0 mm 3 mps 758 mmHg 75%
    19:00 +5°C° 0 mm 3 mps 758 mmHg 76%
    20:00 +5°C° 0 mm 3 mps 759 mmHg 77%
    21:00 +4°C° 0 mm 4 mps 759 mmHg 77%
    22:00 +4°C° 0 mm 3 mps 759 mmHg 76%
    23:00 +4°C° 0 mm 3 mps 759 mmHg 75%
    Show more